Location: Cima de la Lausa
(44.1833°N, 7.2000°E)
Time: 10:19:10
(UTC+00:00)

Daily predictions for brighter satellites

Satellite Brightness Start Highest point End
(mag) Time Altitude Azimuth Time Altitude Azimuth Time Altitude Azimuth
Centaur D AC-29 3.9 19:29:46 10° S 19:32:55 14° SE 19:38:20 10° ESE
Meteor 2-16 Rocket 4.5 19:26:58 10° S 19:33:02 81° E 19:39:09 10° N
ERS-1 Rocket 4.3 19:33:26 10° ESE 19:37:29 25° ENE 19:41:34 10° N
Cosmos 494 Rocket 4.2 19:34:53 10° S 19:39:46 49° ESE 19:44:41 10° NNE
CZ-4C R/B 3.8 19:37:25 10° NNE 19:41:04 39° E 19:44:49 10° S
SL-8 R/B 3.7 19:38:11 10° WSW 19:42:56 90° SSE 19:47:43 10° ENE
Cosmos 1743 3.0 19:40:16 10° N 19:43:45 44° ENE 19:47:12 10° SSE
Aureole 3 Rocket 3.5 19:39:36 10° N 19:43:53 65° E 19:49:50 10° SSE
CSL-04 Rocket 4.0 19:39:04 10° S 19:44:19 69° WSW 19:49:36 10° NNW
USA 186 3.7 19:44:13 10° SSW 19:47:02 29° W 19:49:56 10° NNW
Okean-O 2.7 19:43:04 10° SSE 19:47:25 65° ENE 19:51:48 10° N
SL-16 R/B 3.0 19:43:12 10° SW 19:48:46 59° WNW 19:54:24 10° NNE
Cosmos 1634 Rocket 4.2 19:44:05 10° N 19:50:14 55° ENE 19:56:18 10° SSE
Cosmos 1603 4.5 19:46:56 10° SSE 19:51:51 31° ESE 19:56:49 10° NE
SPOT 5 3.1 19:48:07 10° SE 19:52:29 47° ENE 19:56:42 10° N
Cosmos 1048 Rocket 4.2 19:51:30 10° S 19:56:27 50° ESE 20:01:23 10° NNE
Cosmos 2369 Rocket 2.2 19:51:19 10° NNW 19:56:57 87° ENE 20:02:34 10° SSE
Cosmos 1656 Rocket 3.8 19:51:49 10° NNW 19:57:17 73° WSW 20:02:47 10° SSE
Cosmos 2263 4.3 19:52:18 10° NNW 19:57:59 67° ENE 20:03:25 11° SE
Cosmos 44 4.3 19:55:08 10° NW 19:59:33 38° WSW 20:03:41 10° S
Meteor 1-14 Rocket 4.4 19:56:43 10° N 20:02:36 66° ENE 20:08:31 10° SSE
Cosmos 2084 4.5 20:03:09 10° NW 20:06:32 32° WSW 20:09:57 10° S
Meteor 2-6 Rocket 4.2 20:01:05 10° S 20:06:38 71° E 20:12:04 10° NNE
USA 229 DEB 4.1 20:01:20 10° NW 20:08:52 87° SW 20:16:16 13° SSE
USA 229 4.1 20:01:25 10° NW 20:08:58 87° SW 20:16:23 13° SSE
Cosmos 1331 Rocket 4.5 20:05:01 10° N 20:10:03 47° ENE 20:14:10 15° SE
MOS 1 4.3 20:04:56 10° SSE 20:10:36 88° WSW 20:16:19 10° NNW
Cosmos 1536 3.6 20:11:51 10° N 20:15:26 34° ENE 20:17:51 17° SE
SeaSat 1 4.3 20:11:56 10° SSW 20:15:54 24° WSW 20:19:54 10° NW
Cosmos 1110 Rocket 4.2 20:12:45 10° NNW 20:18:02 60° ENE 20:22:09 16° SE
Cosmos 1726 2.0 20:16:40 10° N 20:19:43 47° E 20:21:30 21° SE
USA 306 3.1 20:18:02 10° NW 20:21:47 54° NNE 20:24:42 16° ESE
USA 59 Rocket 1.9 20:19:32 10° N 20:22:32 21° NE 20:26:14 10° E
Tsikada Rocket 4.4 20:16:38 10° SSW 20:22:47 66° W 20:29:01 10° N
Lacrosse 4 Rocket 3.9 20:21:44 10° NNE 20:23:07 11° NE 20:24:31 10° ENE
Cosmos 1943 3.2 20:19:58 10° SSW 20:25:39 90° SSW 20:31:22 10° NNE
BREEZE-M DEB (TANK) 4.3 20:08:38 10° SSW 20:25:51 47° SSE 20:30:14 10° ENE
IRS-1C Rocket 4.1 20:21:18 12° SSE 20:26:11 89° W 20:31:28 10° NNW
Cosmos 1842 Rocket 3.5 20:22:42 10° S 20:27:08 85° E 20:31:34 10° N
Spot 2 Rocket 3.8 20:25:05 17° SE 20:28:45 53° ENE 20:33:40 10° N
USA 276 3.4 20:27:31 10° W 20:29:00 16° SW 20:29:24 15° SSW
Resurs 01 Rocket 3.9 20:26:09 10° SW 20:29:30 21° W 20:32:51 10° NW
Okean 3 Rocket 3.5 20:25:14 10° N 20:29:39 90° ESE 20:33:10 15° S
IRS-1A Rocket 4.3 20:24:47 13° SSE 20:29:53 90° SW 20:35:28 10° NNW
ARGOS Delta rocket 3.9 20:27:17 15° SSE 20:31:23 76° ENE 20:36:10 10° N
ISS -3.8 20:28:52 10° WNW 20:32:14 72° SW 20:33:56 26° SE
Landsat 5 4.4 20:34:04 10° NE 20:37:16 26° E 20:38:13 23° ESE
SPOT 3 Rocket 3.7 20:36:08 20° SE 20:39:35 59° ENE 20:44:39 10° N
Okean O Rocket 4.0 20:36:32 10° SW 20:39:44 19° W 20:42:57 10° NW
Cosmos 1340 3.7 20:38:07 10° NNE 20:41:03 26° ENE 20:42:01 23° ESE
Sich 1 3.6 20:38:37 10° N 20:42:48 43° ENE 20:44:55 25° SE
Meteor 1-27 Rocket 3.8 20:40:55 17° SSE 20:44:57 54° E 20:50:21 10° NNE
Meteor 2-9 Rocket 4.5 20:40:53 10° N 20:46:42 60° ENE 20:50:24 23° SSE
USA 281 3.7 20:43:30 19° SE 20:48:07 51° ENE 20:54:28 10° NNW
Ariane Rocket 2.9 20:48:21 22° SSE 20:51:40 83° ENE 20:56:47 10° NNW
MetOp-A 4.4 20:53:25 25° SE 20:55:38 43° ENE 21:00:17 10° N
GEOS 3 Rocket 3.8 20:54:20 10° NE 20:59:20 48° ESE 21:03:30 14° SSW
Terra 2.0 20:59:36 21° S 21:02:39 65° W 21:07:21 10° NNW
Cosmos 1340 Rocket 2.7 21:03:13 32° S 21:04:56 68° E 21:08:55 10° NNE
MOS 1 Rocket 3.5 21:02:03 26° SSE 21:05:05 90° ESE 21:10:27 10° NNW
Cosmos 1452 Rocket 4.1 21:03:06 10° NNW 21:08:10 50° WSW 21:11:26 21° S
Cosmos 1743 Rocket 3.5 21:04:39 10° N 21:09:05 76° E 21:10:55 35° SSE
Lacrosse 5 rocket 4.3 21:10:55 10° NW 21:13:15 14° N 21:15:33 10° NNE
NOSS 2-1 (C) 4.1 21:10:03 10° NNW 21:13:52 51° NE 21:16:11 28° ESE
ARIANE 5 R/B 4.2 21:12:44 19° E 21:14:07 22° ENE 21:17:28 10° NNE
ERS-1 Rocket 3.9 21:12:27 17° SSW 21:15:59 43° W 21:20:47 10° NNW
Cosmos 1408 Rocket 4.4 21:14:29 10° NNW 21:18:46 47° W 21:21:17 22° SSW
Meteor 2-10 4.2 21:15:54 10° NNW 21:21:24 73° W 21:24:13 28° S
Cosmos 1626 3.3 21:24:36 24° ENE 21:24:36 24° ENE 21:26:40 10° NNE
Nadezhda 4 Rocket 4.0 21:21:16 21° S 21:25:39 85° W 21:31:57 10° N
Spot 1 4.0 21:21:51 10° N 21:25:57 76° WNW 21:28:04 28° SSW
Cosmos 614 Rocket 3.9 21:25:40 29° S 21:28:21 74° ESE 21:33:35 10° NNE
Cosmos 1833 Rocket 3.7 21:35:26 27° ESE 21:35:48 28° ESE 21:40:28 10° NE
Cosmos 1151 Rocket 3.2 21:37:10 34° SSW 21:38:58 68° W 21:43:18 10° N
Cosmos 1975 2.6 21:38:44 10° N 21:42:41 73° E 21:43:09 64° SE
Cosmos 1328 Rocket 3.6 21:45:12 53° SE 21:45:44 57° E 21:49:59 10° NNE
FALCON 9 R/B 4.4 21:41:57 10° WSW 21:48:39 39° S 21:58:41 23° SE
Cosmos 1302 Rocket 4.5 21:45:53 10° NNW 21:50:54 51° WSW 21:52:42 35° SSW
Cosmos 1992 Rocket 3.9 21:46:25 10° NNW 21:51:40 82° ENE 21:53:10 48° SSE
USA 306 4.1 21:52:01 10° WNW 21:54:47 25° WSW 21:54:47 25° WSW
Cosmos 1656 3.6 21:50:55 10° NNW 21:56:23 75° ENE 21:58:06 45° SE
Cosmos 1766 3.7 21:55:49 10° N 21:59:18 45° ENE 21:59:18 45° ENE
Cosmos 1805 3.7 21:57:39 10° NNW 22:01:14 46° W 22:01:33 44° WSW
Lacrosse 4 Rocket 1.2 21:57:59 10° NNW 22:02:06 78° ENE 22:02:26 71° ESE
H-2A R/B 3.1 22:02:15 40° E 22:02:43 42° ENE 22:06:45 10° N
Cosmos 1470 Rocket 3.8 21:59:22 10° N 22:03:44 54° E 22:04:11 51° ESE
Cosmos 2026 Rocket 4.0 22:02:10 34° SSW 22:05:08 80° W 22:11:26 10° N
IRIDIUM 104 4.5 22:02:31 10° N 22:07:43 66° W 22:09:22 42° SSW
Cosmos 1470 4.1 22:06:24 10° NNE 22:09:19 27° ENE 22:09:19 27° ENE
Cosmos 1633 Rocket 3.0 22:06:29 10° N 22:10:55 79° W 22:11:28 66° SSW
NOSS 3-3 (A) 3.7 22:08:04 28° SW 22:11:04 88° NW 22:17:21 10° NE
USA 59 Rocket 0.5 22:08:12 10° NW 22:12:19 57° SW 22:13:06 51° SSW
Cosmos 1666 Rocket 3.7 22:08:44 10° NNW 22:12:59 60° W 22:13:32 54° SW
Orbus 7S? 3.4 22:13:47 63° E 22:13:47 63° E 22:16:28 10° NE
NOSS 2-1 (E) 4.1 22:10:17 10° NW 22:14:25 54° SW 22:15:08 50° SSW
USA 267 4.3 22:11:10 10° ENE 22:15:41 26° ESE 22:15:41 26° ESE
Cosmos 1140 Rocket 3.8 22:19:19 45° ESE 22:19:34 45° ESE 22:24:33 10° NNE
CZ-2C R/B 3.8 22:18:18 10° N 22:22:46 67° WNW 22:23:38 53° SW
Cosmos 44 Rocket 4.0 22:19:07 10° NNW 22:23:52 45° NE 22:25:16 35° E
Cosmos 1818 3.9 22:21:17 21° SW 22:24:52 63° NW 22:30:20 10° NNE
ALOS 2 3.3 22:26:21 39° E 22:26:47 40° ENE 22:30:55 10° N
NOSS 2-1 (D) 4.5 22:23:04 10° NW 22:27:03 40° WSW 22:27:17 40° SW
Cosmos 1933 Rocket 3.9 22:24:36 10° N 22:28:52 51° ENE 22:29:00 51° E
BREEZE-M DEB (TANK) 3.7 22:31:06 47° ENE 22:31:06 47° ENE 22:35:39 10° ENE
Meteor 2-12 Rocket 4.4 22:29:06 49° S 22:30:55 84° E 22:37:06 10° N
Cosmos 724 4.4 22:32:08 50° SE 22:32:44 52° ESE 22:38:24 10° NE
USA 281 4.2 22:30:22 26° SW 22:32:46 34° WSW 22:38:40 10° NW
Cosmos 1697 Rocket 2.9 22:28:22 10° NNW 22:33:58 62° ENE 22:35:28 46° ESE
Cosmos 1674 3.2 22:37:26 50° N 22:37:26 50° N 22:40:07 10° N
Spot 2 4.4 22:37:38 58° ESE 22:38:12 64° ENE 22:43:04 10° N
Cosmos 1553 Rocket 3.9 22:32:12 10° N 22:38:18 84° W 22:39:56 51° S
Cosmos 1607 3.9 22:37:13 48° S 22:39:01 70° ESE 22:45:29 10° NE
NOSS 3-3 (C) 4.2 22:38:08 20° WSW 22:41:53 60° NW 22:48:12 10° NNE
Cosmos 1980 Rocket 3.3 22:36:56 10° NNW 22:42:13 37° NE 22:44:37 26° E
Cosmos 2285 Rocket 4.0 22:44:28 51° SSE 22:45:51 65° ESE 22:52:08 10° NNE
Cosmos 407 Rocket 3.6 22:49:43 56° ESE 22:50:01 57° ESE 22:55:10 10° NNE
ARIANE 5 R/B 3.5 22:50:12 36° W 22:50:18 36° W 22:54:18 10° NNW
Lacrosse 5 rocket 3.8 22:49:47 10° NNW 22:52:57 20° NNE 22:56:03 10° ENE
Cosmos 1908 3.9 22:51:35 10° N 22:54:20 47° NNE 22:54:20 47° NNE
Cosmos 1626 4.3 22:57:25 15° WNW 22:57:29 15° WNW 22:59:26 10° NW
Cosmos 2251 Rocket 3.4 23:01:47 64° SE 23:02:09 66° ESE 23:07:23 10° NNE
COSMOS 2406 4.1 23:02:31 34° ESE 23:02:42 34° ESE 23:07:49 10° NE
CZ-3 Stage 3 4.2 22:45:07 10° WSW 23:03:03 34° SSW 23:03:03 34° SSW
Meteor 1-13 Rocket 4.2 23:04:59 59° S 23:06:12 82° E 23:12:06 10° NNE
SL-8 R/B 3.9 23:03:46 10° WNW 23:08:32 66° NNE 23:10:28 34° E
Cosmos 1707 3.4 23:09:21 47° NW 23:09:21 47° NW 23:12:17 10° N
Cosmos 2266 Rocket 3.9 23:12:28 54° SSW 23:13:59 83° W 23:20:17 10° N
Spot 4 4.3 23:13:59 47° WSW 23:14:07 47° W 23:18:44 10° NNW
Cosmos 1441 Rocket 3.9 23:11:49 10° N 23:14:30 47° N 23:14:30 47° N
Cosmos 1842 4.5 23:15:46 33° WNW 23:15:46 33° WNW 23:18:49 10° N
SL-16 R/B 4.4 23:12:09 10° N 23:16:14 20° NE 23:20:17 10° E
Cosmos 1655 Rocket 4.0 23:15:56 54° SSE 23:17:26 75° E 23:23:49 10° NNE
Cosmos 1833 Rocket 3.5 23:17:04 29° WSW 23:19:26 46° WNW 23:24:51 10° NNE
Cosmos 883 Rocket 4.4 23:16:46 10° N 23:23:02 87° E 23:24:33 55° SSE
Cosmos 2082 Rocket 2.2 23:23:06 57° SE 23:23:42 60° ESE 23:29:20 10° NNE
ATLAS CENTAUR R/B 4.3 23:13:06 10° NW 23:26:57 71° SW 23:31:47 37° SSE
CZ-2C R/B 3.7 23:27:24 43° SE 23:28:41 56° ENE 23:43:53 10° N
Cosmos 2228 Rocket 3.2 23:31:44 64° E 23:31:44 64° E 23:36:04 10° NNE
Cosmos 1300 3.7 23:28:09 10° N 23:30:52 40° NE 23:30:52 40° NE
Meteor 1-22 Rocket 4.0 23:27:51 10° NNW 23:33:12 81° W 23:33:54 67° SSW
Meteor 1-15 Rocket 4.1 23:31:49 10° NNW 23:37:27 75° W 23:38:16 63° SSW
Cosmos 1356 Rocket 4.2 23:38:18 42° ENE 23:38:18 42° ENE 23:41:45 10° NNE
H-2A R/B 2.0 23:34:00 10° NNE 23:38:23 85° NW 23:38:23 85° NW
Cosmos 1733 Rocket 3.2 23:35:42 10° N 23:39:58 62° ENE 23:39:58 62° ENE
Meteor 1-21 4.3 23:41:47 54° SE 23:42:46 63° E 23:48:26 10° NNE
Cosmos 1869 Rocket 4.3 23:38:39 10° NNW 23:42:30 42° W 23:42:30 42° W
Cosmos 1400 Rocket 3.2 23:54:09 59° NW 23:54:09 59° NW 23:57:41 10° N
